Weather History for Ottumwa, IA

Change the Weather History Date:

Friday, August 29, 2014

  Actual Average Record
Temperature  
Mean Temperature 77 °F 71 °F  
Max Temperature 87 °F 82 °F 98 °F (1984)
Min Temperature 66 °F 60 °F 42 °F (1946)
Degree Days  
Heating Degree Days 0 1  
Month to date heating degree days 0 2  
Since 1 June heating degree days 22 25  
Since 1 July heating degree days 13 4  
Cooling Degree Days 12 7  
Month to date cooling degree days 225 243  
Year to date cooling degree days 714 822  
Since 1 June cooling degree days 603 758  
Growing Degree Days 26 (Base 50)    
Moisture  
Dew Point 68 °F    
Average Humidity 79    
Maximum Humidity 100    
Minimum Humidity 57    
Precipitation  
Precipitation 0.73 in 0.14 in 2.71 in (1975)
Month to date precipitation 5.49 4.32  
Year to date precipitation 29.60 26.41  
Sea Level Pressure  
Sea Level Pressure 29.84 in    
Wind  
Wind Speed 7 mph (South)    
Max Wind Speed 25 mph    
Max Gust Speed 38 mph    
Visibility 7 miles    
Events Rain , Thunderstorm    
T = Trace of Precipitation, MM = Missing Value Source: NWS Daily Summary

Daily Weather History Graph

Daily Weather History Graph

Search for Another Location

Airport:

Trip Planner

Search our weather history database for the weather conditions in past years. The results will help you decide how hot, cold, wet, or windy it might be!

Date:

Astronomy

Aug. 29, 2014 Rise Set
Actual Time 6:33 AM CDT 7:47 PM CDT
Civil Twilight 6:04 AM CDT 8:15 PM CDT
Nautical Twilight 5:30 AM CDT 8:49 PM CDT
Astronomical Twilight 4:54 AM CDT 9:25 PM CDT
Moon 10:25 AM CDT 9:42 PM CDT
Length of Visible Light 14h 10m
Length of Day
13h 13m
Waxing Crescent, 15% of the Moon is Illuminated
Aug 29
Waxing Crescent
Sep 2
First Quarter
Sep 8
Full
Sep 15
Last Quarter
Sep 24
New

Hourly Weather History & Observations

Time (CDT) Temp. Heat Index Dew Point Humidity Pressure Visibility Wind Dir Wind Speed Gust Speed Precip Events Conditions
12:53 AM 70.0 °F - 66.9 °F 90% 29.92 in 10.0 mi SSE 10.4 mph - N/A   Partly Cloudy
1:53 AM 69.1 °F - 66.9 °F 93% 29.90 in 10.0 mi SE 9.2 mph - N/A   Clear
2:53 AM 69.1 °F - 66.9 °F 93% 29.88 in 10.0 mi SSE 8.1 mph - N/A   Partly Cloudy
3:13 AM 69.1 °F - 66.9 °F 93% 29.91 in 9.0 mi NW 6.9 mph - N/A   Mostly Cloudy
3:22 AM 69.8 °F - 68.0 °F 94% 29.91 in 9.0 mi NW 9.2 mph - N/A   Mostly Cloudy
3:53 AM 70.0 °F - 68.0 °F 93% 29.89 in 8.0 mi Calm Calm - N/A   Overcast
4:07 AM 71.1 °F - 68.0 °F 90% 29.90 in 9.0 mi Calm Calm - N/A   Overcast
4:34 AM 69.1 °F - 66.9 °F 93% 29.89 in 6.0 mi ESE 4.6 mph - N/A   Scattered Clouds
4:53 AM 68.0 °F - 66.9 °F 96% 29.87 in 6.0 mi ESE 4.6 mph - N/A   Scattered Clouds
5:53 AM 66.9 °F - 66.0 °F 97% 29.87 in 5.0 mi SE 5.8 mph - N/A   Partly Cloudy
6:50 AM 68.0 °F - 66.2 °F 94% 29.88 in 2.5 mi SE 5.8 mph - N/A   Clear
6:53 AM 68.0 °F - 66.9 °F 96% 29.87 in 2.5 mi SE 5.8 mph - N/A   Clear
7:23 AM 69.1 °F - 68.0 °F 96% 29.89 in 3.0 mi SSE 5.8 mph - N/A   Clear
7:53 AM 71.1 °F - 69.1 °F 93% 29.86 in 4.0 mi SSE 10.4 mph - N/A   Clear
8:53 AM 73.9 °F - 69.1 °F 85% 29.87 in 7.0 mi South 6.9 mph - N/A   Clear
9:53 AM 77.0 °F - 70.0 °F 79% 29.85 in 10.0 mi South 9.2 mph - N/A   Clear
10:53 AM 81.0 °F 84.4 °F 70.0 °F 69% 29.84 in 10.0 mi South 10.4 mph - N/A   Clear
11:53 AM 82.9 °F 87.0 °F 70.0 °F 65% 29.83 in 10.0 mi South 9.2 mph - N/A   Clear
12:53 PM 84.9 °F 90.1 °F 71.1 °F 63% 29.83 in 10.0 mi SSE 11.5 mph - N/A   Clear
1:53 PM 86.0 °F 90.7 °F 70.0 °F 59% 29.78 in 10.0 mi South 9.2 mph - N/A   Clear
2:53 PM 82.4 °F 86.3 °F 69.8 °F 66% 29.80 in 10.0 mi South 6.9 mph - N/A   Scattered Clouds
3:53 PM 79.0 °F - 71.1 °F 77% 29.78 in 10.0 mi South 5.8 mph - 0.01 in   Scattered Clouds
4:22 PM 73.0 °F - 68.0 °F 84% 29.81 in 7.0 mi WSW 16.1 mph 24.2 mph 0.02 in Rain , Thunderstorm Light Thunderstorms and Rain
4:29 PM 71.1 °F - 69.1 °F 93% 29.82 in 2.0 mi WSW 13.8 mph 21.9 mph 0.06 in Rain , Thunderstorm Heavy Thunderstorms and Rain
4:38 PM 71.1 °F - 69.1 °F 93% 29.81 in 3.0 mi SW 9.2 mph - 0.09 in Rain , Thunderstorm Rain
4:53 PM 71.1 °F - 69.1 °F 93% 29.80 in 4.0 mi SW 6.9 mph - 0.12 in Rain Light Rain
5:53 PM 71.1 °F - 69.1 °F 93% 29.79 in 10.0 mi Calm Calm - 0.03 in   Mostly Cloudy
7:53 PM 70.0 °F - 69.1 °F 97% 29.78 in 9.0 mi South 6.9 mph - 0.05 in   Mostly Cloudy
8:18 PM 70.0 °F - 69.1 °F 97% 29.80 in 8.0 mi South 4.6 mph - N/A   Scattered Clouds
8:53 PM 70.0 °F - 69.1 °F 97% 29.79 in 6.0 mi South 5.8 mph - N/A   Partly Cloudy
9:53 PM 69.8 °F - 68.0 °F 94% 29.82 in 7.0 mi South 5.8 mph - N/A   Clear
10:53 PM 70.0 °F - 69.1 °F 97% 29.80 in 6.0 mi South 6.9 mph - N/A   Partly Cloudy
11:53 PM 69.1 °F - 68.0 °F 96% 29.80 in 6.0 mi South 5.8 mph - N/A   Scattered Clouds